Location: Starlight Observatory
(38.4029°N, 85.8936°W)
Time: 02:26:57
(UTC-04:00)

Iridium 84 - Visible Passes

Search period start: 05 August 2015 00:00
Search period end: 15 August 2015 00:00
Orbit: 776 x 779 km, 86.4° (Epoch: 04 August)

Date Brightness Start Highest point End Pass type
(mag) Time Alt. Az. Time Alt. Az. Time Alt. Az.
05 Aug 7.5 21:42:58 10° E 21:44:09 11° ENE 21:45:42 10° ENE visible
05 Aug 5.6 23:23:12 56° SSW 23:24:17 76° W 23:29:31 10° N visible
06 Aug 5.6 22:49:30 45° SE 22:50:47 58° E 22:55:55 10° N visible
07 Aug 7.9 00:29:57 12° W 00:32:02 15° WNW 00:34:50 10° NW visible
07 Aug 6.4 22:15:47 25° ESE 22:17:24 30° E 22:21:57 10° NNE visible
07 Aug 7.2 23:56:14 22° WSW 23:58:08 27° W 00:02:31 10° NNW visible
08 Aug 7.1 21:42:03 13° ESE 21:44:04 17° E 21:47:23 10° NE visible
08 Aug 6.2 23:22:30 34° SW 23:24:25 51° W 23:29:30 10° N visible
09 Aug 5.4 22:48:45 37° S 22:50:51 85° E 22:56:06 10° N visible
10 Aug 5.9 22:14:56 26° SE 22:17:24 44° E 22:22:21 10° NNE visible
10 Aug 7.8 23:55:23 12° WSW 23:58:26 19° WNW 00:02:01 10° NNW visible
11 Aug 6.7 21:41:07 15° SE 21:44:02 24° E 21:48:12 10° NNE visible
11 Aug 6.9 23:21:33 19° SW 23:24:36 35° W 23:29:20 10° NNW visible
12 Aug 7.3 21:08:41 10° ESE 21:10:45 13° E 21:13:07 10° NE visible
12 Aug 5.8 22:47:41 23° SSW 22:50:57 66° W 22:56:09 10° N visible
13 Aug 5.5 22:13:46 19° SSE 22:17:25 66° E 22:22:37 10° N visible
13 Aug 8.2 23:56:16 10° WSW 23:58:47 13° WNW 00:01:00 10° NW visible
14 Aug 6.2 21:39:48 12° SSE 21:44:00 35° E 21:48:43 10° NNE visible
14 Aug 7.5 23:20:36 10° SW 23:24:51 24° WNW 23:29:00 10° NNW visible
